| time (UTC) | temp F | wind direction | speed MPH | gust MPH | rain 1hr in | rain 24hr in | rain mn in | humidity % | barometer mb |
| 20260905204604 | 89 | 271 | 3.0 | 10.0 | 0.00 | 0.00 | 0.00 | 33 | 1012.3 |
| 20260905204330 | 89 | 192 | 2.0 | 9.0 | 0.00 | 0.00 | 0.00 | 32 | 1012.2 |
| 20260905203350 | 89 | 149 | 2.0 | 9.0 | 0.00 | 0.00 | 0.00 | 29 | 1012.3 |
| 20260905203005 | 88 | 232 | 4.0 | 8.0 | 0.00 | 0.00 | 0.00 | 29 | 1012.3 |
| 20260905202351 | 88 | 198 | 3.0 | 10.0 | 0.00 | 0.00 | 0.00 | 30 | 1012.4 |
| 20260905201609 | 87 | 46 | 3.0 | 11.0 | 0.00 | 0.00 | 0.00 | 29 | 1012.5 |
| 20260905201333 | 88 | 193 | 3.0 | 10.0 | 0.00 | 0.00 | 0.00 | 29 | 1012.5 |
| 20260905200345 | 89 | 264 | 1.0 | 9.0 | 0.00 | 0.00 | 0.00 | 29 | 1012.5 |
| 20260905200145 | 89 | 210 | 2.0 | 6.0 | 0.00 | 0.00 | 0.00 | 30 | 1012.7 |
| 20260905194502 | 87 | 207 | 2.0 | 8.0 | 0.00 | 0.00 | 0.00 | 31 | 1012.9 |
| 20260905194234 | 87 | 208 | 1.0 | 7.0 | 0.00 | 0.00 | 0.00 | 32 | 1012.8 |
| 20260905193218 | 86 | 207 | 2.0 | 7.0 | 0.00 | 0.00 | 0.00 | 33 | 1012.8 |
| 20260905193102 | 86 | 243 | 3.0 | 8.0 | 0.00 | 0.00 | 0.00 | 33 | 1012.9 |
| 20260905191503 | 84 | 166 | 1.0 | 9.0 | 0.00 | 0.00 | 0.00 | 37 | 1013.2 |
| 20260905191055 | 84 | 152 | 2.0 | 7.0 | 0.00 | 0.00 | 0.00 | 37 | 1013.2 |
| 20260905190027 | 84 | 217 | 2.0 | 9.0 | 0.00 | 0.00 | 0.00 | 36 | 1013.4 |
| 20260905190003 | 84 | 252 | 3.0 | 9.0 | 0.00 | 0.00 | 0.00 | 36 | 1013.4 |
| 20260905185030 | 84 | 26 | 1.0 | 9.0 | 0.00 | 0.00 | 0.00 | 37 | 1013.4 |
| 20260905184611 | 83 | 190 | 2.0 | 10.0 | 0.00 | 0.00 | 0.00 | 38 | 1013.5 |
| 20260905184024 | 83 | 165 | 2.0 | 8.0 | 0.00 | 0.00 | 0.00 | 42 | 1013.5 |
| 20260905183003 | 82 | 207 | 2.0 | 6.0 | 0.00 | 0.00 | 0.00 | 38 | 1013.7 |
| 20260905181909 | 82 | 204 | 1.0 | 6.0 | 0.00 | 0.00 | 0.00 | 40 | 1013.8 |
| 20260905181604 | 82 | 280 | 0.0 | 6.0 | 0.00 | 0.00 | 0.00 | 42 | 1013.8 |
| 20260905180856 | 81 | 193 | 2.0 | 6.0 | 0.00 | 0.00 | 0.00 | 43 | 1013.8 |
| 20260905180108 | 80 | 243 | 2.0 | 7.0 | 0.00 | 0.00 | 0.00 | 45 | 1013.9 |
| 20260905174707 | 81 | 198 | 0.0 | 4.0 | 0.00 | 0.00 | 0.00 | 46 | 1013.6 |
| 20260905174502 | 80 | 147 | 0.0 | 4.0 | 0.00 | 0.00 | 0.00 | 44 | 1013.7 |
| 20260905173724 | 79 | 162 | 1.0 | 5.0 | 0.00 | 0.00 | 0.00 | 46 | 1013.6 |
| 20260905173103 | 79 | 163 | 1.0 | 5.0 | 0.00 | 0.00 | 0.00 | 47 | 1013.5 |
| 20260905172727 | 79 | 210 | 0.0 | 6.0 | 0.00 | 0.00 | 0.00 | 49 | 1013.5 |
| 20260905171729 | 77 | 213 | 1.0 | 6.0 | 0.00 | 0.00 | 0.00 | 52 | 1013.6 |
| 20260905171508 | 77 | 187 | 4.0 | 7.0 | 0.00 | 0.00 | 0.00 | 52 | 1013.6 |
| 20260905170747 | 76 | 215 | 2.0 | 5.0 | 0.00 | 0.00 | 0.00 | 56 | 1013.5 |
| 20260905170002 | 75 | 206 | 1.0 | 6.0 | 0.00 | 0.00 | 0.00 | 58 | 1013.5 |
| 20260905165720 | 76 | 229 | 1.0 | 5.0 | 0.00 | 0.00 | 0.00 | 60 | 1013.4 |
| 20260905164604 | 74 | 243 | 1.0 | 4.0 | 0.00 | 0.00 | 0.00 | 64 | 1013.4 |
| 20260905163521 | 74 | 213 | 0.0 | 2.0 | 0.00 | 0.00 | 0.00 | 67 | 1013.4 |
| 20260905163003 | 73 | 221 | 0.0 | 3.0 | 0.00 | 0.00 | 0.00 | 68 | 1013.4 |
| 20260905162523 | 73 | 213 | 0.0 | 2.0 | 0.00 | 0.00 | 0.00 | 68 | 1013.3 |
| 20260905161611 | 70 | 325 | 0.0 | 2.0 | 0.00 | 0.00 | 0.00 | 72 | 1013.4 |
| 20260905161542 | 71 | 325 | 0.0 | 0.0 | 0.00 | 0.00 | 0.00 | 72 | 1013.3 |
| 20260905160003 | 68 | 322 | 0.0 | 2.0 | 0.00 | 0.00 | 0.00 | 77 | 1013.3 |
| 20260905155343 | 67 | 327 | 0.0 | 2.0 | 0.00 | 0.00 | 0.00 | 78 | 1013.3 |
| 20260905154602 | 66 | 330 | 0.0 | 2.0 | 0.00 | 0.00 | 0.00 | 82 | 1013.3 |
| 20260905154342 | 66 | 314 | 0.0 | 1.0 | 0.00 | 0.00 | 0.00 | 82 | 1013.3 |
| 20260905153404 | 65 | 315 | 0.0 | 2.0 | 0.00 | 0.00 | 0.00 | 87 | 1013.1 |
| 20260905153004 | 64 | 304 | 0.0 | 3.0 | 0.00 | 0.00 | 0.00 | 89 | 1013.1 |
| 20260905152330 | 64 | 338 | 0.0 | 0.0 | 0.00 | 0.00 | 0.00 | 91 | 1013.2 |
| 20260905151603 | 62 | 345 | 0.0 | 1.0 | 0.00 | 0.00 | 0.00 | 92 | 1013.2 |
| 20260905151343 | 63 | 345 | 0.0 | 0.0 | 0.00 | 0.00 | 0.00 | 93 | 1013.1 |
| 20260905145230 | 61 | 355 | 0.0 | 0.0 | 0.00 | 0.00 | 0.00 | 93 | 1012.9 |
| 20260905144503 | 60 | 355 | 0.0 | 1.0 | 0.00 | 0.00 | 0.00 | 93 | 1013.0 |
| 20260905144240 | 60 | 355 | 0.0 | 0.0 | 0.00 | 0.00 | 0.00 | 93 | 1012.9 |
| 20260905143247 | 60 | 355 | 0.0 | 0.0 | 0.00 | 0.00 | 0.00 | 94 | 1012.7 |
| 20260905143105 | 60 | 355 | 0.0 | 1.0 | 0.00 | 0.00 | 0.00 | 94 | 1012.8 |
| 20260905142255 | 60 | 345 | 0.0 | 0.0 | 0.00 | 0.00 | 0.00 | 94 | 1012.7 |
| 20260905141503 | 59 | 344 | 0.0 | 1.0 | 0.00 | 0.00 | 0.00 | 94 | 1012.7 |
| 20260905141300 | 59 | 344 | 0.0 | 0.0 | 0.00 | 0.00 | 0.00 | 95 | 1012.7 |
| 20260905140321 | 59 | 344 | 0.0 | 0.0 | 0.00 | 0.00 | 0.00 | 94 | 1012.6 |
| 20260905140002 | 58 | 344 | 0.0 | 1.0 | 0.00 | 0.00 | 0.00 | 93 | 1012.6 |
| 20260905134606 | 59 | 344 | 0.0 | 1.0 | 0.00 | 0.00 | 0.00 | 93 | 1012.4 |
| 20260905134148 | 60 | 344 | 0.0 | 0.0 | 0.00 | 0.00 | 0.00 | 95 | 1012.3 |
| 20260905133158 | 59 | 345 | 0.0 | 0.0 | 0.00 | 0.00 | 0.00 | 94 | 1012.1 |
| 20260905133004 | 59 | 345 | 0.0 | 1.0 | 0.00 | 0.00 | 0.00 | 94 | 1012.2 |
| 20260905132124 | 60 | 344 | 0.0 | 0.0 | 0.00 | 0.00 | 0.00 | 95 | 1012.1 |
| 20260905131608 | 59 | 345 | 0.0 | 1.0 | 0.00 | 0.00 | 0.00 | 94 | 1012.1 |
| 20260905131105 | 59 | 345 | 0.0 | 0.0 | 0.00 | 0.00 | 0.00 | 93 | 1012.0 |
| 20260905130107 | 59 | 344 | 0.0 | 1.0 | 0.00 | 0.00 | 0.00 | 94 | 1012.0 |
| 20260905130059 | 60 | 345 | 0.0 | 0.0 | 0.00 | 0.00 | 0.00 | 94 | 1012.0 |
| 20260905125041 | 61 | 344 | 0.0 | 0.0 | 0.00 | 0.00 | 0.00 | 95 | 1011.9 |
| 20260905124503 | 60 | 344 | 0.0 | 1.0 | 0.00 | 0.00 | 0.00 | 94 | 1012.0 |
| 20260905124046 | 61 | 345 | 0.0 | 0.0 | 0.00 | 0.00 | 0.00 | 95 | 1011.9 |
| 20260905123108 | 60 | 344 | 0.0 | 1.0 | 0.00 | 0.00 | 0.00 | 94 | 1012.0 |
| 20260905123046 | 61 | 345 | 0.0 | 0.0 | 0.00 | 0.00 | 0.00 | 94 | 1011.9 |
| 20260905121504 | 60 | 344 | 0.0 | 1.0 | 0.00 | 0.00 | 0.00 | 95 | 1012.1 |
| 20260905120928 | 61 | 344 | 0.0 | 0.0 | 0.00 | 0.00 | 0.00 | 93 | 1012.1 |
| 20260905120003 | 61 | 344 | 0.0 | 1.0 | 0.00 | 0.00 | 0.00 | 95 | 1012.1 |
| 20260905115940 | 61 | 344 | 0.0 | 0.0 | 0.00 | 0.00 | 0.00 | 95 | 1012.0 |
| 20260905114921 | 61 | 345 | 0.0 | 0.0 | 0.00 | 0.00 | 0.00 | 94 | 1012.0 |
| 20260905114612 | 61 | 345 | 0.0 | 1.0 | 0.00 | 0.00 | 0.00 | 94 | 1011.9 |
| 20260905113006 | 62 | 344 | 0.0 | 1.0 | 0.00 | 0.00 | 0.00 | 94 | 1012.0 |
| 20260905112814 | 62 | 344 | 0.0 | 0.0 | 0.00 | 0.00 | 0.00 | 95 | 1012.0 |
| 20260905111747 | 62 | 353 | 0.0 | 0.0 | 0.00 | 0.00 | 0.00 | 94 | 1012.1 |
| 20260905111614 | 62 | 1 | 0.0 | 1.0 | 0.00 | 0.00 | 0.00 | 94 | 1012.1 |
| 20260905110730 | 62 | 1 | 0.0 | 1.0 | 0.00 | 0.00 | 0.00 | 94 | 1012.0 |
| 20260905110104 | 62 | 10 | 0.0 | 1.0 | 0.00 | 0.00 | 0.00 | 94 | 1012.1 |
| 20260905105749 | 62 | 8 | 0.0 | 0.0 | 0.00 | 0.00 | 0.00 | 94 | 1012.0 |
| 20260905104803 | 62 | 13 | 0.0 | 0.0 | 0.00 | 0.00 | 0.00 | 93 | 1012.2 |
| 20260905104502 | 62 | 13 | 0.0 | 1.0 | 0.00 | 0.00 | 0.00 | 94 | 1012.3 |
| 20260905103739 | 62 | 13 | 0.0 | 0.0 | 0.00 | 0.00 | 0.00 | 93 | 1012.3 |
| 20260905103103 | 62 | 13 | 0.0 | 1.0 | 0.00 | 0.00 | 0.00 | 93 | 1012.3 |
| 20260905102751 | 62 | 13 | 0.0 | 0.0 | 0.00 | 0.00 | 0.00 | 93 | 1012.2 |
| 20260905101804 | 63 | 13 | 0.0 | 0.0 | 0.00 | 0.00 | 0.00 | 93 | 1012.2 |
| 20260905101505 | 62 | 13 | 0.0 | 1.0 | 0.00 | 0.00 | 0.00 | 93 | 1012.3 |
| 20260905100828 | 62 | 13 | 0.0 | 0.0 | 0.00 | 0.00 | 0.00 | 92 | 1012.2 |
| 20260905100001 | 62 | 360 | 0.0 | 1.0 | 0.00 | 0.00 | 0.00 | 93 | 1012.2 |
| 20260905094706 | 63 | 347 | 0.0 | 0.0 | 0.00 | 0.00 | 0.00 | 93 | 1012.2 |
| 20260905094612 | 62 | 347 | 0.0 | 1.0 | 0.00 | 0.00 | 0.00 | 93 | 1012.4 |
| 20260905093704 | 62 | 347 | 0.0 | 0.0 | 0.00 | 0.00 | 0.00 | 92 | 1012.3 |
| 20260905093003 | 62 | 346 | 0.0 | 1.0 | 0.00 | 0.00 | 0.00 | 92 | 1012.3 |
| 20260905092705 | 63 | 346 | 0.0 | 0.0 | 0.00 | 0.00 | 0.00 | 92 | 1012.3 |
| 20260905091643 | 63 | 345 | 0.0 | 0.0 | 0.00 | 0.00 | 0.00 | 91 | 1012.3 |
| 20260905091609 | 62 | 345 | 0.0 | 1.0 | 0.00 | 0.00 | 0.00 | 91 | 1012.3 |
| 20260905090622 | 63 | 345 | 0.0 | 0.0 | 0.00 | 0.00 | 0.00 | 91 | 1012.3 |
| 20260905084506 | 63 | 35 | 0.0 | 1.0 | 0.00 | 0.00 | 0.00 | 89 | 1012.5 |
| 20260905084359 | 64 | 35 | 0.0 | 0.0 | 0.00 | 0.00 | 0.00 | 89 | 1012.4 |
| 20260905083346 | 64 | 34 | 0.0 | 4.0 | 0.00 | 0.00 | 0.00 | 91 | 1012.4 |
| 20260905083102 | 63 | 30 | 1.0 | 4.0 | 0.00 | 0.00 | 0.00 | 90 | 1012.5 |
| 20260905082341 | 64 | 27 | 0.0 | 1.0 | 0.00 | 0.00 | 0.00 | 89 | 1012.4 |
| 20260905081502 | 63 | 27 | 1.0 | 2.0 | 0.00 | 0.00 | 0.00 | 89 | 1012.5 |
| 20260905081348 | 63 | 34 | 0.0 | 0.0 | 0.00 | 0.00 | 0.00 | 89 | 1012.5 |
| 20260905080105 | 62 | 34 | 1.0 | 1.0 | 0.00 | 0.00 | 0.00 | 88 | 1012.5 |
| 20260905075250 | 63 | 34 | 0.0 | 0.0 | 0.00 | 0.00 | 0.00 | 88 | 1012.4 |
| 20260905074502 | 63 | 35 | 0.0 | 2.0 | 0.00 | 0.00 | 0.00 | 89 | 1012.6 |
| 20260905074314 | 63 | 35 | 0.0 | 1.0 | 0.00 | 0.00 | 0.00 | 89 | 1012.5 |
| 20260905073324 | 63 | 221 | 0.0 | 0.0 | 0.00 | 0.00 | 0.00 | 90 | 1012.4 |
| 20260905073103 | 62 | 221 | 0.0 | 1.0 | 0.00 | 0.00 | 0.00 | 89 | 1012.5 |
| 20260905072331 | 63 | 221 | 0.0 | 0.0 | 0.00 | 0.00 | 0.00 | 90 | 1012.5 |
| 20260905071502 | 63 | 221 | 0.0 | 1.0 | 0.00 | 0.00 | 0.00 | 90 | 1012.4 |
| 20260905071322 | 63 | 221 | 0.0 | 0.0 | 0.00 | 0.00 | 0.00 | 89 | 1012.4 |
| 20260905070258 | 63 | 220 | 0.0 | 0.0 | 0.00 | 0.00 | 0.00 | 90 | 1012.4 |
| 20260905070002 | 63 | 220 | 0.0 | 1.0 | 0.00 | 0.00 | 0.00 | 89 | 1012.4 |
| 20260905065231 | 63 | 220 | 0.0 | 0.0 | 0.00 | 0.00 | 0.00 | 89 | 1012.3 |
| 20260905064604 | 63 | 220 | 0.0 | 1.0 | 0.00 | 0.00 | 0.00 | 90 | 1012.3 |
| 20260905064207 | 64 | 220 | 0.0 | 0.0 | 0.00 | 0.00 | 0.00 | 90 | 1012.3 |
| 20260905063220 | 64 | 220 | 0.0 | 0.0 | 0.00 | 0.00 | 0.00 | 89 | 1012.3 |
| 20260905063003 | 63 | 220 | 0.0 | 1.0 | 0.00 | 0.00 | 0.00 | 89 | 1012.3 |
| 20260905061614 | 63 | 220 | 0.0 | 1.0 | 0.00 | 0.00 | 0.00 | 88 | 1012.3 |
| 20260905061042 | 64 | 219 | 0.0 | 0.0 | 0.00 | 0.00 | 0.00 | 88 | 1012.3 |
| 20260905060037 | 63 | 219 | 0.0 | 0.0 | 0.00 | 0.00 | 0.00 | 86 | 1012.3 |
| 20260905055025 | 64 | 219 | 0.0 | 0.0 | 0.00 | 0.00 | 0.00 | 87 | 1012.2 |
| 20260905054503 | 63 | 219 | 0.0 | 1.0 | 0.00 | 0.00 | 0.00 | 86 | 1012.3 |
| 20260905054018 | 64 | 219 | 0.0 | 0.0 | 0.00 | 0.00 | 0.00 | 86 | 1012.2 |
| 20260905053102 | 64 | 219 | 0.0 | 1.0 | 0.00 | 0.00 | 0.00 | 85 | 1012.2 |
| 20260905053026 | 64 | 219 | 0.0 | 0.0 | 0.00 | 0.00 | 0.00 | 85 | 1012.1 |
| 20260905052029 | 64 | 219 | 0.0 | 0.0 | 0.00 | 0.00 | 0.00 | 87 | 1012.2 |
| 20260905051502 | 63 | 219 | 0.0 | 1.0 | 0.00 | 0.00 | 0.00 | 86 | 1012.4 |
| 20260905051009 | 64 | 219 | 0.0 | 0.0 | 0.00 | 0.00 | 0.00 | 85 | 1012.3 |
| 20260905050006 | 64 | 219 | 0.0 | 0.0 | 0.00 | 0.00 | 0.00 | 85 | 1012.3 |
| 20260905044932 | 64 | 219 | 0.0 | 0.0 | 0.00 | 0.00 | 0.00 | 84 | 1012.1 |
| 20260905044604 | 64 | 219 | 0.0 | 1.0 | 0.00 | 0.00 | 0.00 | 82 | 1012.2 |
| 20260905043901 | 65 | 219 | 0.0 | 0.0 | 0.00 | 0.00 | 0.00 | 85 | 1012.0 |
| 20260905043002 | 64 | 219 | 0.0 | 0.0 | 0.00 | 0.00 | 0.00 | 83 | 1011.9 |
| 20260905041757 | 64 | 219 | 0.0 | 1.0 | 0.00 | 0.00 | 0.00 | 83 | 1011.8 |
| 20260905041602 | 64 | 219 | 0.0 | 1.0 | 0.00 | 0.00 | 0.00 | 84 | 1011.9 |
| 20260905040119 | 64 | 219 | 0.0 | 1.0 | 0.00 | 0.00 | 0.00 | 82 | 1011.7 |
| 20260905034517 | 65 | 219 | 0.0 | 0.0 | 0.00 | 0.00 | 0.00 | 81 | 1011.7 |
| 20260905034508 | 65 | 219 | 0.0 | 1.0 | 0.00 | 0.00 | 0.00 | 81 | 1011.7 |
| 20260905033517 | 66 | 219 | 0.0 | 0.0 | 0.00 | 0.00 | 0.00 | 83 | 1011.4 |
| 20260905033103 | 65 | 219 | 0.0 | 1.0 | 0.00 | 0.00 | 0.00 | 82 | 1011.4 |
| 20260905032451 | 66 | 219 | 0.0 | 0.0 | 0.00 | 0.00 | 0.00 | 80 | 1011.3 |
| 20260905031502 | 66 | 219 | 0.0 | 1.0 | 0.00 | 0.00 | 0.00 | 81 | 1011.2 |
| 20260905031446 | 66 | 219 | 0.0 | 0.0 | 0.00 | 0.00 | 0.00 | 81 | 1011.2 |
| 20260905030508 | 67 | 219 | 0.0 | 0.0 | 0.00 | 0.00 | 0.00 | 79 | 1011.1 |
| 20260905030003 | 67 | 219 | 0.0 | 1.0 | 0.00 | 0.00 | 0.00 | 79 | 1011.1 |
| 20260905024603 | 67 | 205 | 0.0 | 0.0 | 0.00 | 0.00 | 0.00 | 78 | 1011.0 |
| 20260905023105 | 68 | 205 | 0.0 | 0.0 | 0.00 | 0.00 | 0.00 | 77 | 1011.0 |
| 20260905022058 | 69 | 205 | 0.0 | 0.0 | 0.00 | 0.00 | 0.00 | 76 | 1011.0 |
| 20260905021502 | 69 | 214 | 0.0 | 2.0 | 0.00 | 0.00 | 0.00 | 76 | 1011.1 |
| 20260905021032 | 70 | 193 | 0.0 | 3.0 | 0.00 | 0.00 | 0.00 | 76 | 1011.1 |
| 20260905020024 | 71 | 242 | 0.0 | 2.0 | 0.00 | 0.00 | 0.00 | 75 | 1011.0 |
| 20260905020002 | 70 | 242 | 0.0 | 3.0 | 0.00 | 0.00 | 0.00 | 75 | 1011.1 |
| 20260905014604 | 71 | 219 | 0.0 | 6.0 | 0.00 | 0.00 | 0.00 | 73 | 1011.2 |
| 20260905013854 | 72 | 182 | 0.0 | 3.0 | 0.00 | 0.00 | 0.00 | 72 | 1011.2 |
| 20260905013003 | 72 | 259 | 1.0 | 4.0 | 0.00 | 0.00 | 0.00 | 71 | 1011.2 |
| 20260905012847 | 72 | 231 | 1.0 | 0.0 | 0.00 | 0.00 | 0.00 | 71 | 1011.2 |
| 20260905011602 | 72 | 210 | 1.0 | 6.0 | 0.00 | 0.00 | 0.00 | 69 | 1011.3 |
| 20260905010817 | 73 | 241 | 2.0 | 5.0 | 0.00 | 0.00 | 0.00 | 69 | 1011.3 |
| 20260905010108 | 73 | 172 | 3.0 | 6.0 | 0.00 | 0.00 | 0.00 | 69 | 1011.3 |
| 20260905005756 | 74 | 323 | 3.0 | 7.0 | 0.00 | 0.00 | 0.00 | 68 | 1011.4 |
| 20260905004820 | 74 | 240 | 2.0 | 7.0 | 0.00 | 0.00 | 0.00 | 66 | 1011.4 |
| 20260905004502 | 74 | 159 | 4.0 | 8.0 | 0.00 | 0.00 | 0.00 | 65 | 1011.3 |
| 20260905003802 | 75 | 225 | 2.0 | 6.0 | 0.00 | 0.00 | 0.00 | 63 | 1011.3 |
| 20260905003102 | 75 | 171 | 1.0 | 4.0 | 0.00 | 0.00 | 0.00 | 63 | 1011.3 |
| 20260905002814 | 76 | 214 | 2.0 | 6.0 | 0.00 | 0.00 | 0.00 | 62 | 1011.3 |
| 20260905001503 | 75 | 259 | 3.0 | 7.0 | 0.00 | 0.00 | 0.00 | 62 | 1011.2 |
| 20260905000724 | 76 | 238 | 2.0 | 7.0 | 0.00 | 0.00 | 0.00 | 61 | 1011.4 |
| 20260905000008 | 76 | 238 | 1.0 | 8.0 | 0.00 | 0.00 | 0.00 | 61 | 1011.2 |
| 20260904235724 | 76 | 227 | 2.0 | 7.0 | 0.00 | 0.00 | 0.00 | 59 | 1011.2 |
| 20260904234722 | 77 | 154 | 2.0 | 8.0 | 0.00 | 0.00 | 0.00 | 59 | 1011.3 |
| 20260904234602 | 76 | 187 | 2.0 | 9.0 | 0.00 | 0.00 | 0.00 | 60 | 1011.3 |
| 20260904233003 | 77 | 198 | 5.0 | 10.0 | 0.00 | 0.00 | 0.00 | 57 | 1011.3 |
| 20260904232556 | 78 | 236 | 3.0 | 9.0 | 0.00 | 0.00 | 0.00 | 57 | 1011.3 |
| 20260904231611 | 78 | 165 | 2.0 | 10.0 | 0.00 | 0.00 | 0.00 | 58 | 1011.2 |
| 20260904231602 | 78 | 204 | 3.0 | 8.0 | 0.00 | 0.00 | 0.00 | 58 | 1011.2 |
| 20260904230624 | 78 | 201 | 3.0 | 10.0 | 0.00 | 0.00 | 0.00 | 57 | 1011.3 |
| 20260904230109 | 78 | 167 | 3.0 | 11.0 | 0.00 | 0.00 | 0.00 | 59 | 1011.4 |
| 20260904224546 | 79 | 194 | 3.0 | 9.0 | 0.00 | 0.00 | 0.00 | 57 | 1011.4 |
| 20260904224503 | 78 | 190 | 5.0 | 10.0 | 0.00 | 0.00 | 0.00 | 57 | 1011.5 |
| 20260904223526 | 78 | 133 | 3.0 | 9.0 | 0.00 | 0.00 | 0.00 | 58 | 1011.5 |
| 20260904223109 | 78 | 224 | 2.0 | 7.0 | 0.00 | 0.00 | 0.00 | 58 | 1011.5 |
| 20260904222527 | 79 | 195 | 3.0 | 9.0 | 0.00 | 0.00 | 0.00 | 59 | 1011.5 |
| 20260904221503 | 79 | 246 | 4.0 | 10.0 | 0.00 | 0.00 | 0.00 | 58 | 1011.7 |
| 20260904221500 | 79 | 246 | 3.0 | 11.0 | 0.00 | 0.00 | 0.00 | 58 | 1011.6 |
| 20260904220508 | 79 | 266 | 3.0 | 11.0 | 0.00 | 0.00 | 0.00 | 60 | 1011.6 |
| 20260904220003 | 79 | 196 | 4.0 | 12.0 | 0.00 | 0.00 | 0.00 | 59 | 1011.7 |
| 20260904215505 | 79 | 253 | 3.0 | 10.0 | 0.00 | 0.00 | 0.00 | 61 | 1011.6 |
| 20260904214602 | 78 | 203 | 4.0 | 9.0 | 0.00 | 0.00 | 0.00 | 60 | 1011.7 |
| 20260904213401 | 78 | 257 | 4.0 | 10.0 | 0.00 | 0.00 | 0.00 | 61 | 1011.7 |
| 20260904213004 | 78 | 236 | 4.0 | 10.0 | 0.00 | 0.00 | 0.00 | 62 | 1011.7 |
| 20260904212412 | 78 | 233 | 3.0 | 13.0 | 0.00 | 0.00 | 0.00 | 62 | 1011.7 |
| 20260904211506 | 78 | 271 | 3.0 | 14.0 | 0.00 | 0.00 | 0.00 | 61 | 1011.8 |
| 20260904211343 | 78 | 287 | 4.0 | 13.0 | 0.00 | 0.00 | 0.00 | 61 | 1011.7 |
| 20260904210330 | 79 | 195 | 3.0 | 11.0 | 0.00 | 0.00 | 0.00 | 60 | 1011.7 |
| 20260904210002 | 78 | 238 | 4.0 | 11.0 | 0.00 | 0.00 | 0.00 | 59 | 1011.8 |
| 20260904205256 | 79 | 203 | 4.0 | 10.0 | 0.00 | 0.00 | 0.00 | 58 | 1011.7 |